Вернуться в каталог

COSMOS 860 COOLANT

АктивенLEO
NORAD 29196·DEBRIS·🇷🇺 Russia

Запущен Oct 17, 1976 с Baikonur Cosmodrome

Loading…

Ближайшие Пролёты (ближайшие 24 часа)

TLE

УстаревающийSource: Space-Track

Эпоха: Sep 8, 2026, 22:35 UTC

1 29196U 76103J   26251.94149875  .00000098  00000-0  15920-3 0  9994
2 29196  64.6974 137.5978 0052817 179.0131 196.8537 13.87428556666703

Отслеживайте COSMOS 860 COOLANT в реальном времени с AllMySat

Download on the App Store